Flag for Spain Weather past 2 weeks in Madrid, Spain

Now
32 °F

Clear.


Feels Like: 32 °F
Forecast: 28 / 54 °F
Wind: No wind

Location: Madrid / Cuatro Vientos

Current Time: Jan 26, 2015 at 7:25:35 AM

Latest Report: Jan 26, 2015 at 7:00 AM


Visibility: 10 mi

Pressure: 30.30 "Hg

Humidity: 69%

Dew point: 23 °F

Location of MadridLocation

Historic Weather in Madrid — Graph

°F

Madrid temperature yesterday

Maximum temperature yesterday: 59 °F (at 2:30 PM)
Minimum temperature yesterday: 32 °F (at 7:00 AM)
Average temperature yesterday: 49 °F

Past Weeks' High & Low Weather Summary

 TemperatureHumidityPressure
High59 °F (Jan 11, 2:00 PM)100% (Jan 13, 7:00 AM)30.54 "Hg (Jan 13, 7:00 AM)
Low27 °F (Jan 17, 8:00 AM)18% (Jan 25, 5:00 PM)29.74 "Hg (Jan 19, 7:00 AM)
Average43 °F67%30.14 "Hg
* Reported Jan 10 8:00 PM — Jan 25 8:00 PM, Madrid, Weather by CustomWeather, © 2014

Note: Actual official high and low records may vary slightly from our data, if they occured in-between our weather recording intervals... More about our weather records

Advertising

Madrid weather history for previous 24 hours

 ConditionsComfort  
Time TempWeatherWind HumidityBarometerVisibility
8:00 PM
Jan 25
43 °FPassing clouds.3 mph49%30.30 "HgN/A
7:30 PM46 °FPassing clouds.5 mph40%30.30 "HgN/A
7:00 PM50 °FPassing clouds.5 mph28%30.30 "HgN/A
6:30 PM52 °FPassing clouds.7 mph30%30.30 "HgN/A
6:00 PM54 °FPassing clouds.5 mph26%30.30 "HgN/A
5:30 PM57 °FPassing clouds.7 mph21%30.30 "HgN/A
5:00 PM59 °FSunny.3 mph18%30.30 "Hg10 mi
4:30 PM59 °FSunny.2 mph21%30.30 "Hg10 mi
4:00 PM57 °FPassing clouds.5 mph25%30.30 "HgN/A
3:30 PM59 °FSunny.1 mph23%30.30 "Hg10 mi
3:00 PM59 °FSunny.1 mph23%30.30 "Hg10 mi
2:30 PM59 °FSunny.No wind25%30.33 "Hg10 mi
2:00 PM55 °FPassing clouds.3 mph31%30.33 "HgN/A
1:30 PM57 °FSunny.2 mph25%30.36 "Hg10 mi
1:00 PM55 °FSunny.2 mph28%30.36 "Hg10 mi
12:30 PM52 °FPassing clouds.3 mph41%30.36 "HgN/A
12:00 PM52 °FSunny.1 mph38%30.36 "Hg10 mi
11:30 AM50 °FSunny.1 mph40%30.36 "Hg10 mi
11:00 AM46 °FPassing clouds.5 mph53%30.36 "HgN/A
10:30 AM45 °FSunny.5 mph57%30.33 "Hg10 mi
10:00 AM43 °FSunny.3 mph66%30.33 "Hg10 mi
9:30 AM39 °FSunny.1 mph70%30.33 "Hg10 mi
9:00 AM34 °FSunny.No wind81%30.33 "Hg10 mi
8:30 AM32 °FSunny.1 mph87%30.30 "Hg10 mi
8:00 AM32 °FClear.No wind87%30.30 "Hg10 mi
7:30 AM32 °FClear.No wind87%30.30 "Hg10 mi
7:00 AM32 °FClear.No wind80%30.30 "Hg10 mi
Weather by CustomWeather, © 2014

See weather overviewHow to use our weather pages